Local Weather and METAR Reports

The data for these readings is taken from the NOAA Wesbite.  Please make sure you conduct your own weather check before flying.

METAR:

EGHI 041220Z 22010KT 200V260 9999 FEW042 19/10 Q1017


QNH (Hectopascals): 1017


QNH (Inches Mercury): 30.03


TEMPERATURE (Degrees Celsius): 19°


DEW POINT TEMPERATURE (Degrees Celsius): 10°

Live Radar

Radar Data provided by FlightRadar24

Local NOTAMS

Whilst we will strive to keep local NOTAM information up to date, please make sure that you conduct your own review of local reports before flying.

Loading RSS Feed